Find Cartosat-2 Series Satellite

NORAD ID: 43111 Int'l Des: 2018-004 Owner: ISRO Country: IN operational
LEOCIRCULARRETROGRADESSO

Current View

Loading 3D Globe...

About Cartosat-2 Series Satellite

Description loading...

Upcoming Passes

Passes for default location (London). Set your location on the main map for personalized predictions.

Altitude History

Loading altitude history...

Two-Line Element Set

1 43111U 18004A 26151.14941598 .00006907 00000-0 33105-3 0 9996
2 43111 97.4799 210.9486 0000578 30.9520 329.1749 15.19230345464749
Epoch: May 31, 2026 • Age: 5 hours

Current Status

Altitude 519.8 km
Velocity 7.61 km/s
Sub-Earth Point 67.79°N, 28.72°E
Launch Date Jan 12, 2018
Age 8.3 years
Type other

Technical Details

Classification Payload
Mass 712.00 kg
Dry Mass 639.00 kg
Total Mass 712.00 kg
Length 3.50 m
Diameter 2.00 m
Span 8.00 m
Shape Hex Cyl + 2 Pan
Manufacturer ISRO
Bus Type IRS-2
Phase Status In Orbit
Owner/State ISRO/IN

Most Searched